| time (UTC) | temp F | wind direction | speed knots | gust knots | rain 1hr in | rain 24hr in | rain mn in | humidity % | barometer mb |
| 20260506204840 | 54 | 336 | 2.6 | 5.2 | 0.00 | 0.20 | 0.20 | 45 | 1012.9 |
| 20260506204337 | 54 | 345 | 2.6 | 7.0 | 0.00 | 0.20 | 0.20 | 45 | 1012.7 |
| 20260506203835 | 54 | 330 | 1.7 | 5.2 | 0.00 | 0.20 | 0.20 | 45 | 1012.9 |
| 20260506203332 | 54 | 334 | 1.7 | 2.6 | 0.00 | 0.20 | 0.20 | 47 | 1012.6 |
| 20260506202829 | 54 | 346 | 0.0 | 2.6 | 0.00 | 0.20 | 0.20 | 47 | 1012.6 |
| 20260506202326 | 54 | 351 | 2.6 | 3.5 | 0.00 | 0.20 | 0.20 | 46 | 1012.7 |
| 20260506201822 | 54 | 303 | 0.9 | 3.5 | 0.00 | 0.20 | 0.20 | 44 | 1012.9 |
| 20260506201320 | 54 | 315 | 1.7 | 3.5 | 0.00 | 0.20 | 0.20 | 45 | 1012.6 |
| 20260506200816 | 54 | 357 | 1.7 | 5.2 | 0.00 | 0.20 | 0.20 | 45 | 1012.6 |
| 20260506200312 | 55 | 329 | 0.9 | 3.5 | 0.00 | 0.20 | 0.20 | 45 | 1012.9 |
| 20260506195809 | 55 | 331 | 0.9 | 2.6 | 0.00 | 0.20 | 0.20 | 45 | 1012.6 |
| 20260506195306 | 55 | 319 | 0.9 | 2.6 | 0.00 | 0.20 | 0.20 | 44 | 1012.6 |
| 20260506194803 | 55 | 313 | 1.7 | 3.5 | 0.00 | 0.20 | 0.20 | 43 | 1012.5 |
| 20260506194259 | 56 | 345 | 1.7 | 3.5 | 0.00 | 0.20 | 0.20 | 45 | 1012.7 |
| 20260506193757 | 56 | 291 | 1.7 | 3.5 | 0.00 | 0.20 | 0.20 | 43 | 1012.6 |
| 20260506193254 | 56 | 272 | 3.5 | 6.1 | 0.00 | 0.20 | 0.20 | 42 | 1012.5 |
| 20260506192750 | 56 | 287 | 0.9 | 2.6 | 0.00 | 0.20 | 0.20 | 44 | 1012.6 |
| 20260506192247 | 56 | 295 | 3.5 | 5.2 | 0.00 | 0.20 | 0.20 | 43 | 1012.7 |
| 20260506191744 | 57 | 273 | 1.7 | 5.2 | 0.00 | 0.20 | 0.20 | 43 | 1012.5 |
| 20260506191240 | 57 | 328 | 2.6 | 3.5 | 0.00 | 0.20 | 0.20 | 44 | 1012.5 |
| 20260506190737 | 57 | 276 | 2.6 | 2.6 | 0.00 | 0.20 | 0.20 | 47 | 1012.5 |
| 20260506190234 | 56 | 319 | 0.9 | 3.5 | 0.00 | 0.20 | 0.20 | 46 | 1012.6 |
| 20260506185731 | 56 | 349 | 0.9 | 2.6 | 0.00 | 0.20 | 0.20 | 45 | 1012.7 |
| 20260506185227 | 56 | 317 | 0.9 | 3.5 | 0.00 | 0.20 | 0.20 | 43 | 1012.6 |
| 20260506184725 | 56 | 309 | 1.7 | 2.6 | 0.00 | 0.20 | 0.20 | 45 | 1012.6 |
| 20260506184222 | 56 | 336 | 0.9 | 2.6 | 0.00 | 0.20 | 0.20 | 44 | 1012.7 |
| 20260506183719 | 56 | 314 | 2.6 | 6.1 | 0.00 | 0.20 | 0.20 | 46 | 1012.8 |
| 20260506183214 | 56 | 285 | 0.9 | 2.6 | 0.00 | 0.20 | 0.20 | 45 | 1012.5 |
| 20260506182712 | 56 | 328 | 1.7 | 2.6 | 0.00 | 0.20 | 0.20 | 44 | 1012.4 |
| 20260506182209 | 56 | 327 | 1.7 | 1.7 | 0.00 | 0.20 | 0.20 | 44 | 1012.4 |
| 20260506181707 | 55 | 243 | 0.9 | 2.6 | 0.00 | 0.20 | 0.20 | 46 | 1012.6 |
| 20260506181204 | 55 | 5 | 1.7 | 2.6 | 0.00 | 0.20 | 0.20 | 44 | 1012.6 |
| 20260506180701 | 55 | 312 | 2.6 | 5.2 | 0.00 | 0.20 | 0.20 | 45 | 1012.6 |
| 20260506180157 | 55 | 345 | 3.5 | 5.2 | 0.00 | 0.20 | 0.20 | 44 | 1012.4 |
| 20260506175653 | 56 | 356 | 0.9 | 2.6 | 0.00 | 0.20 | 0.20 | 47 | 1012.5 |
| 20260506175151 | 56 | 348 | 1.7 | 2.6 | 0.00 | 0.20 | 0.20 | 48 | 1012.5 |
| 20260506174649 | 56 | 307 | 0.9 | 3.5 | 0.00 | 0.20 | 0.20 | 43 | 1012.6 |
| 20260506174145 | 56 | 337 | 0.9 | 2.6 | 0.00 | 0.20 | 0.20 | 45 | 1012.7 |
| 20260506173643 | 56 | 347 | 0.9 | 1.7 | 0.00 | 0.20 | 0.20 | 46 | 1012.8 |
| 20260506173140 | 56 | 332 | 2.6 | 2.6 | 0.00 | 0.20 | 0.20 | 48 | 1012.7 |
| 20260506172637 | 55 | 358 | 0.9 | 2.6 | 0.00 | 0.20 | 0.20 | 50 | 1012.3 |
| 20260506172133 | 55 | 295 | 0.9 | 2.6 | 0.00 | 0.20 | 0.20 | 50 | 1012.6 |
| 20260506171631 | 55 | 333 | 1.7 | 3.5 | 0.00 | 0.20 | 0.20 | 47 | 1012.9 |
| 20260506171128 | 56 | 25 | 0.9 | 2.6 | 0.00 | 0.20 | 0.20 | 47 | 1012.7 |
| 20260506170626 | 55 | 335 | 2.6 | 5.2 | 0.00 | 0.20 | 0.20 | 49 | 1012.8 |
| 20260506170122 | 55 | 278 | 0.9 | 5.2 | 0.00 | 0.20 | 0.20 | 50 | 1012.8 |
| 20260506165621 | 56 | 355 | 2.6 | 6.1 | 0.00 | 0.20 | 0.20 | 46 | 1013.0 |
| 20260506165117 | 55 | 357 | 0.9 | 7.0 | 0.00 | 0.20 | 0.20 | 48 | 1012.9 |
| 20260506164614 | 55 | 341 | 1.7 | 2.6 | 0.00 | 0.20 | 0.20 | 48 | 1012.8 |
| 20260506164112 | 55 | 327 | 2.6 | 2.6 | 0.00 | 0.20 | 0.20 | 46 | 1012.8 |
| 20260506163607 | 55 | 329 | 0.9 | 0.9 | 0.00 | 0.20 | 0.20 | 48 | 1012.9 |
| 20260506163103 | 55 | 76 | 1.7 | 2.6 | 0.00 | 0.20 | 0.20 | 50 | 1013.1 |
| 20260506162559 | 55 | 6 | 2.6 | 6.1 | 0.00 | 0.20 | 0.20 | 46 | 1012.9 |
| 20260506162051 | 55 | 325 | 1.7 | 8.7 | 0.00 | 0.20 | 0.20 | 47 | 1012.7 |
| 20260506161549 | 55 | 305 | 1.7 | 5.2 | 0.00 | 0.20 | 0.20 | 47 | 1012.6 |
| 20260506161046 | 55 | 347 | 1.7 | 2.6 | 0.00 | 0.20 | 0.20 | 50 | 1012.8 |
| 20260506160543 | 54 | 316 | 2.6 | 5.2 | 0.00 | 0.20 | 0.20 | 47 | 1012.7 |
| 20260506160040 | 54 | 305 | 0.9 | 5.2 | 0.00 | 0.20 | 0.20 | 48 | 1012.7 |
| 20260506155538 | 53 | 32 | 0.9 | 2.6 | 0.00 | 0.20 | 0.20 | 47 | 1012.8 |
| 20260506153715 | 53 | 315 | 1.7 | 3.5 | 0.00 | 0.20 | 0.20 | 51 | 1012.6 |
| 20260506153212 | 54 | 344 | 2.6 | 3.5 | 0.00 | 0.20 | 0.20 | 53 | 1012.7 |
| 20260506152709 | 54 | 325 | 1.7 | 1.7 | 0.00 | 0.20 | 0.20 | 52 | 1012.1 |
| 20260506152207 | 53 | 94 | 0.9 | 1.7 | 0.00 | 0.20 | 0.20 | 54 | 1012.2 |
| 20260506151706 | 53 | 2 | 1.7 | 3.5 | 0.00 | 0.20 | 0.20 | 55 | 1012.2 |
| 20260506151201 | 53 | 348 | 1.7 | 1.7 | 0.00 | 0.20 | 0.20 | 58 | 1012.2 |
| 20260506150658 | 53 | 290 | 0.9 | 1.7 | 0.00 | 0.20 | 0.20 | 57 | 1012.1 |
| 20260506150155 | 52 | 320 | 0.9 | 1.7 | 0.00 | 0.20 | 0.20 | 57 | 1012.4 |
| 20260506145652 | 53 | 324 | 0.9 | 1.7 | 0.00 | 0.20 | 0.20 | 57 | 1012.2 |
| 20260506145149 | 52 | 131 | 0.9 | 3.5 | 0.00 | 0.20 | 0.20 | 60 | 1012.2 |
| 20260506144647 | 52 | 348 | 0.9 | 2.6 | 0.00 | 0.20 | 0.20 | 62 | 1012.2 |
| 20260506144143 | 52 | 344 | 2.6 | 6.1 | 0.00 | 0.20 | 0.20 | 59 | 1012.1 |
| 20260506143641 | 52 | 329 | 3.5 | 3.5 | 0.00 | 0.20 | 0.20 | 61 | 1011.9 |
| 20260506143139 | 52 | 292 | 0.9 | 3.5 | 0.00 | 0.20 | 0.20 | 62 | 1012.0 |
| 20260506142637 | 51 | 242 | 1.7 | 3.5 | 0.00 | 0.20 | 0.20 | 63 | 1011.7 |
| 20260506142135 | 51 | 317 | 0.9 | 0.9 | 0.00 | 0.20 | 0.20 | 68 | 1011.8 |
| 20260506141632 | 51 | 338 | 2.6 | 3.5 | 0.00 | 0.20 | 0.20 | 68 | 1011.8 |
| 20260506141130 | 51 | 330 | 1.7 | 1.7 | 0.00 | 0.20 | 0.20 | 69 | 1011.5 |
| 20260506140627 | 51 | 286 | 1.7 | 2.6 | 0.00 | 0.20 | 0.20 | 70 | 1011.4 |
| 20260506140125 | 51 | 312 | 2.6 | 5.2 | 0.00 | 0.20 | 0.20 | 69 | 1011.3 |
| 20260506135621 | 50 | 32 | 1.7 | 2.6 | 0.00 | 0.20 | 0.20 | 73 | 1011.4 |
| 20260506135118 | 50 | 319 | 0.9 | 0.9 | 0.00 | 0.20 | 0.20 | 74 | 1011.6 |
| 20260506134614 | 49 | 327 | 0.0 | 1.7 | 0.00 | 0.20 | 0.20 | 75 | 1011.3 |
| 20260506134110 | 49 | 330 | 0.9 | 1.7 | 0.00 | 0.20 | 0.20 | 74 | 1011.7 |
| 20260506133608 | 49 | 317 | 0.9 | 5.2 | 0.00 | 0.20 | 0.20 | 75 | 1011.7 |
| 20260506133104 | 49 | 325 | 1.7 | 2.6 | 0.00 | 0.20 | 0.20 | 78 | 1011.8 |
| 20260506132602 | 49 | 322 | 3.5 | 3.5 | 0.00 | 0.20 | 0.20 | 77 | 1011.7 |
| 20260506132058 | 49 | 327 | 0.9 | 1.7 | 0.00 | 0.20 | 0.20 | 80 | 1011.6 |
| 20260506131556 | 48 | 317 | 0.0 | 2.6 | 0.00 | 0.20 | 0.20 | 80 | 1011.6 |
| 20260506131052 | 48 | 203 | 0.0 | 2.6 | 0.00 | 0.20 | 0.20 | 84 | 1011.5 |
| 20260506130549 | 47 | 314 | 0.0 | 2.6 | 0.00 | 0.20 | 0.20 | 84 | 1011.1 |
| 20260506130047 | 47 | 333 | 3.5 | 5.2 | 0.00 | 0.20 | 0.20 | 86 | 1011.2 |
| 20260506125545 | 47 | 351 | 1.7 | 2.6 | 0.00 | 0.20 | 0.20 | 86 | 1011.1 |
| 20260506125042 | 47 | 336 | 0.9 | 0.9 | 0.00 | 0.20 | 0.20 | 87 | 1011.0 |
| 20260506124540 | 46 | 331 | 1.7 | 1.7 | 0.00 | 0.20 | 0.20 | 88 | 1010.9 |
| 20260506124037 | 46 | 336 | 0.9 | 0.9 | 0.00 | 0.20 | 0.20 | 89 | 1010.9 |
| 20260506123535 | 46 | 358 | 0.9 | 1.7 | 0.00 | 0.20 | 0.20 | 90 | 1010.8 |
| 20260506123033 | 46 | 314 | 0.9 | 0.9 | 0.00 | 0.20 | 0.20 | 91 | 1011.2 |
| 20260506122529 | 46 | 294 | 0.0 | 0.9 | 0.00 | 0.20 | 0.20 | 91 | 1010.8 |
| 20260506122028 | 45 | 277 | 0.9 | 0.9 | 0.00 | 0.20 | 0.20 | 92 | 1010.7 |
| 20260506121525 | 45 | 293 | 0.9 | 2.6 | 0.00 | 0.20 | 0.20 | 92 | 1010.7 |
| 20260506121021 | 45 | 286 | 0.9 | 2.6 | 0.00 | 0.20 | 0.20 | 93 | 1011.0 |
| 20260506120519 | 44 | 315 | 1.7 | 2.6 | 0.00 | 0.20 | 0.20 | 94 | 1011.0 |
| 20260506120016 | 44 | 322 | 0.9 | 1.7 | 0.00 | 0.20 | 0.20 | 94 | 1010.6 |
| 20260506115514 | 44 | 322 | 0.9 | 0.9 | 0.00 | 0.20 | 0.20 | 94 | 1010.3 |
| 20260506115012 | 44 | 324 | 0.0 | 0.0 | 0.00 | 0.20 | 0.20 | 95 | 1010.2 |
| 20260506114509 | 44 | 354 | 0.0 | 0.9 | 0.00 | 0.20 | 0.20 | 95 | 1010.2 |
| 20260506114008 | 44 | 329 | 0.9 | 0.9 | 0.00 | 0.20 | 0.20 | 95 | 1010.2 |
| 20260506113505 | 44 | 312 | 0.0 | 0.0 | 0.00 | 0.20 | 0.20 | 95 | 1010.0 |
| 20260506113002 | 44 | 293 | 0.0 | 0.0 | 0.00 | 0.20 | 0.20 | 95 | 1010.0 |
| 20260506112459 | 44 | 292 | 0.0 | 0.0 | 0.07 | 0.20 | 0.20 | 95 | 1010.0 |
| 20260506111956 | 44 | 308 | 0.0 | 0.0 | 0.07 | 0.20 | 0.20 | 95 | 1010.0 |
| 20260506111454 | 44 | 313 | 0.0 | 0.0 | 0.00 | 0.19 | 0.19 | 95 | 1009.8 |
| 20260506110951 | 44 | 309 | 0.0 | 0.0 | 0.00 | 0.19 | 0.19 | 95 | 1009.9 |
| 20260506110449 | 43 | 314 | 0.0 | 0.0 | 0.00 | 0.19 | 0.19 | 95 | 1010.2 |
| 20260506105945 | 44 | 310 | 0.0 | 0.9 | 0.00 | 0.19 | 0.19 | 95 | 1010.2 |
| 20260506105441 | 44 | 324 | 0.0 | 0.9 | 0.00 | 0.19 | 0.19 | 95 | 1010.0 |
| 20260506104939 | 44 | 324 | 0.0 | 0.9 | 0.00 | 0.19 | 0.19 | 95 | 1009.9 |
| 20260506104437 | 43 | 296 | 0.9 | 0.9 | 0.00 | 0.19 | 0.19 | 95 | 1009.7 |
| 20260506103935 | 43 | 302 | 0.0 | 0.9 | 0.00 | 0.19 | 0.19 | 95 | 1009.9 |
| 20260506103432 | 43 | 301 | 0.0 | 0.0 | 0.00 | 0.19 | 0.19 | 95 | 1009.6 |
| 20260506102929 | 43 | 284 | 0.0 | 0.0 | 0.00 | 0.19 | 0.19 | 95 | 1009.6 |
| 20260506102427 | 43 | 351 | 0.0 | 0.9 | 0.00 | 0.19 | 0.19 | 95 | 1009.5 |
| 20260506101924 | 43 | 310 | 0.0 | 0.9 | 0.00 | 0.19 | 0.19 | 95 | 1009.5 |
| 20260506101420 | 43 | 308 | 0.0 | 0.9 | 0.00 | 0.19 | 0.19 | 95 | 1009.3 |
| 20260506100918 | 44 | 328 | 0.0 | 0.0 | 0.00 | 0.19 | 0.19 | 95 | 1008.9 |
| 20260506100416 | 43 | 321 | 0.9 | 0.9 | 0.00 | 0.19 | 0.19 | 95 | 1008.7 |
| 20260506095913 | 43 | 305 | 0.0 | 0.0 | 0.00 | 0.19 | 0.19 | 95 | 1008.6 |
| 20260506095412 | 43 | 307 | 0.0 | 0.0 | 0.00 | 0.19 | 0.19 | 95 | 1008.6 |
| 20260506094907 | 43 | 297 | 0.0 | 0.0 | 0.00 | 0.19 | 0.19 | 95 | 1008.6 |
| 20260506094406 | 43 | 297 | 0.0 | 0.0 | 0.00 | 0.19 | 0.19 | 95 | 1008.9 |
| 20260506093904 | 43 | 213 | 0.0 | 0.0 | 0.00 | 0.19 | 0.19 | 95 | 1008.7 |
| 20260506093401 | 44 | 213 | 0.0 | 0.0 | 0.00 | 0.19 | 0.19 | 95 | 1008.7 |
| 20260506092859 | 44 | 213 | 0.0 | 0.0 | 0.00 | 0.19 | 0.19 | 95 | 1008.7 |
| 20260506092357 | 44 | 213 | 0.0 | 0.0 | 0.00 | 0.19 | 0.19 | 95 | 1008.8 |
| 20260506091853 | 44 | 213 | 0.0 | 0.0 | 0.00 | 0.19 | 0.19 | 95 | 1008.9 |
| 20260506091351 | 43 | 309 | 0.0 | 0.0 | 0.00 | 0.19 | 0.19 | 95 | 1008.9 |
| 20260506090848 | 43 | 322 | 0.0 | 0.0 | 0.00 | 0.19 | 0.19 | 95 | 1009.3 |
| 20260506090346 | 44 | 5 | 0.0 | 0.9 | 0.00 | 0.19 | 0.19 | 95 | 1009.4 |
| 20260506085842 | 44 | 335 | 0.0 | 0.9 | 0.00 | 0.19 | 0.19 | 95 | 1009.3 |
| 20260506085338 | 44 | 327 | 0.0 | 0.9 | 0.00 | 0.19 | 0.19 | 95 | 1009.3 |
| 20260506084835 | 44 | 336 | 0.0 | 0.0 | 0.00 | 0.19 | 0.19 | 95 | 1009.2 |
| 20260506084332 | 44 | 322 | 0.0 | 0.0 | 0.00 | 0.19 | 0.19 | 95 | 1008.7 |
| 20260506083828 | 44 | 291 | 0.0 | 0.0 | 0.07 | 0.19 | 0.19 | 96 | 1008.7 |
| 20260506083326 | 44 | 283 | 0.0 | 0.0 | 0.07 | 0.19 | 0.19 | 96 | 1008.9 |
| 20260506082823 | 44 | 323 | 0.0 | 0.0 | 0.00 | 0.18 | 0.18 | 96 | 1009.1 |
| 20260506082320 | 44 | 335 | 0.0 | 0.9 | 0.00 | 0.18 | 0.18 | 96 | 1009.2 |
| 20260506081816 | 44 | 327 | 0.0 | 0.9 | 0.00 | 0.18 | 0.18 | 96 | 1009.4 |
| 20260506081314 | 44 | 324 | 0.0 | 0.0 | 0.00 | 0.18 | 0.18 | 96 | 1009.2 |
| 20260506080812 | 44 | 325 | 0.0 | 0.0 | 0.00 | 0.18 | 0.18 | 96 | 1009.2 |
| 20260506080308 | 44 | 325 | 0.0 | 0.0 | 0.00 | 0.18 | 0.18 | 96 | 1009.2 |
| 20260506073252 | 44 | 348 | 0.0 | 0.0 | 0.05 | 0.18 | 0.18 | 96 | 1008.7 |
| 20260506072749 | 44 | 349 | 0.0 | 0.0 | 0.05 | 0.18 | 0.18 | 96 | 1008.8 |
| 20260506072246 | 44 | 24 | 0.0 | 0.0 | 0.00 | 0.17 | 0.17 | 96 | 1008.8 |
| 20260506071744 | 44 | 31 | 0.0 | 0.0 | 0.00 | 0.17 | 0.17 | 96 | 1008.4 |
| 20260506071241 | 44 | 23 | 0.0 | 0.0 | 0.07 | 0.17 | 0.17 | 96 | 1008.8 |
| 20260506070738 | 45 | 322 | 0.0 | 0.0 | 0.07 | 0.17 | 0.17 | 96 | 1009.4 |
| 20260506070235 | 44 | 324 | 0.0 | 0.9 | 0.00 | 0.16 | 0.16 | 96 | 1009.5 |
| 20260506062212 | 45 | 135 | 0.0 | 0.0 | 0.05 | 0.14 | 0.14 | 96 | 1008.7 |
| 20260506061708 | 45 | 333 | 0.0 | 0.0 | 0.07 | 0.13 | 0.13 | 96 | 1008.7 |
| 20260506061206 | 45 | 340 | 0.0 | 1.7 | 0.07 | 0.13 | 0.13 | 96 | 1009.3 |
| 20260506060704 | 45 | 339 | 1.7 | 1.7 | 0.05 | 0.12 | 0.12 | 96 | 1009.3 |
| 20260506060201 | 46 | 315 | 0.0 | 0.0 | 0.12 | 0.12 | 0.12 | 96 | 1009.3 |
| 20260506051133 | 46 | 328 | 0.0 | 0.0 | 0.05 | 0.05 | 0.05 | 96 | 1009.1 |
| 20260506050631 | 46 | 322 | 0.0 | 0.9 | 0.00 | 0.04 | 0.04 | 96 | 1009.4 |
| 20260506050128 | 46 | 331 | 0.0 | 0.9 | 0.07 | 0.04 | 0.04 | 96 | 1009.2 |
| 20260506045121 | 46 | 301 | 0.0 | 0.0 | 0.05 | 0.03 | 0.03 | 96 | 1009.1 |
| 20260506044619 | 46 | 281 | 0.0 | 0.0 | 0.00 | 0.02 | 0.02 | 96 | 1009.1 |
| 20260506044116 | 46 | 288 | 0.0 | 0.0 | 0.00 | 0.02 | 0.02 | 96 | 1009.3 |
| 20260506043613 | 46 | 336 | 0.0 | 0.0 | 0.07 | 0.02 | 0.02 | 96 | 1008.8 |
| 20260506043111 | 46 | 301 | 0.0 | 0.0 | 0.07 | 0.02 | 0.02 | 96 | 1008.7 |
| 20260506042610 | 46 | 321 | 0.0 | 0.0 | 0.00 | 0.01 | 0.01 | 96 | 1008.9 |
| 20260506042107 | 46 | 243 | 0.0 | 0.0 | 0.00 | 0.01 | 0.01 | 96 | 1008.9 |
| 20260506041606 | 46 | 243 | 0.0 | 0.0 | 0.05 | 0.01 | 0.01 | 96 | 1009.1 |
| 20260506041102 | 46 | 254 | 0.0 | 0.0 | 0.05 | 0.01 | 0.01 | 96 | 1009.1 |
| 20260506040600 | 46 | 301 | 0.0 | 0.0 | 0.00 | 0.00 | 0.00 | 96 | 1009.1 |
| 20260506040056 | 46 | 301 | 0.0 | 0.0 | 0.07 | 0.61 | 0.61 | 96 | 1009.2 |
| 20260506035553 | 46 | 301 | 0.0 | 0.0 | 0.00 | 0.60 | 0.60 | 96 | 1009.3 |
| 20260506035050 | 46 | 301 | 0.0 | 0.0 | 0.05 | 0.60 | 0.60 | 96 | 1009.1 |
| 20260506034547 | 46 | 313 | 0.0 | 0.0 | 0.05 | 0.60 | 0.60 | 95 | 1009.4 |
| 20260506034044 | 46 | 321 | 0.0 | 0.0 | 0.07 | 0.59 | 0.59 | 96 | 1009.5 |
| 20260506033541 | 47 | 329 | 0.0 | 0.0 | 0.05 | 0.58 | 0.58 | 96 | 1009.4 |
| 20260506033038 | 47 | 328 | 0.0 | 0.0 | 0.05 | 0.58 | 0.58 | 96 | 1009.2 |
| 20260506032536 | 47 | 311 | 0.0 | 0.0 | 0.00 | 0.57 | 0.57 | 96 | 1008.8 |
| 20260506032032 | 47 | 316 | 0.0 | 0.0 | 0.07 | 0.57 | 0.57 | 96 | 1009.1 |
| 20260506031530 | 47 | 311 | 0.0 | 0.0 | 0.07 | 0.57 | 0.57 | 95 | 1008.9 |
| 20260506031027 | 47 | 217 | 0.0 | 0.0 | 0.00 | 0.56 | 0.56 | 95 | 1009.2 |
| 20260506030525 | 47 | 209 | 0.0 | 0.0 | 0.05 | 0.56 | 0.56 | 96 | 1008.9 |
| 20260506030022 | 47 | 212 | 0.0 | 0.0 | 0.05 | 0.56 | 0.56 | 95 | 1009.2 |
| 20260506025519 | 47 | 210 | 0.0 | 0.0 | 0.07 | 0.55 | 0.55 | 95 | 1009.6 |
| 20260506025015 | 47 | 210 | 0.0 | 0.0 | 0.14 | 0.55 | 0.55 | 95 | 1009.4 |
| 20260506024512 | 47 | 185 | 0.0 | 0.0 | 0.07 | 0.54 | 0.54 | 95 | 1009.4 |
| 20260506024008 | 47 | 185 | 0.0 | 0.0 | 0.05 | 0.53 | 0.53 | 95 | 1009.5 |
| 20260506023504 | 47 | 185 | 0.0 | 0.0 | 0.05 | 0.53 | 0.53 | 95 | 1009.3 |
| 20260506023001 | 47 | 184 | 0.0 | 0.0 | 0.07 | 0.52 | 0.52 | 95 | 1009.4 |
| 20260506022459 | 47 | 167 | 0.0 | 0.0 | 0.12 | 0.52 | 0.52 | 95 | 1009.5 |
| 20260506021957 | 47 | 187 | 0.0 | 0.0 | 0.05 | 0.51 | 0.51 | 95 | 1009.5 |
| 20260506021454 | 47 | 215 | 0.0 | 0.0 | 0.07 | 0.50 | 0.50 | 95 | 1009.5 |
| 20260506020951 | 47 | 215 | 0.0 | 0.0 | 0.12 | 0.50 | 0.50 | 95 | 1009.4 |
| 20260506020449 | 48 | 223 | 0.0 | 0.0 | 0.05 | 0.49 | 0.49 | 95 | 1009.5 |
| 20260506015945 | 48 | 217 | 0.0 | 0.0 | 0.07 | 0.48 | 0.48 | 95 | 1009.2 |
| 20260506015443 | 48 | 234 | 0.0 | 0.9 | 0.07 | 0.48 | 0.48 | 95 | 1009.3 |
| 20260506014940 | 47 | 316 | 0.0 | 0.0 | 0.00 | 0.47 | 0.47 | 95 | 1009.5 |
| 20260506014437 | 48 | 301 | 0.0 | 0.9 | 0.05 | 0.47 | 0.47 | 95 | 1009.4 |
| 20260506013933 | 48 | 315 | 0.0 | 0.9 | 0.00 | 0.46 | 0.46 | 95 | 1009.6 |
| 20260506013431 | 48 | 306 | 0.0 | 0.9 | 0.00 | 0.46 | 0.46 | 95 | 1009.3 |
| 20260506012927 | 48 | 295 | 0.0 | 0.0 | 0.07 | 0.46 | 0.46 | 95 | 1009.1 |
| 20260506012424 | 48 | 273 | 0.0 | 0.0 | 0.05 | 0.45 | 0.45 | 95 | 1008.9 |
| 20260506011921 | 48 | 301 | 0.0 | 0.0 | 0.05 | 0.45 | 0.45 | 95 | 1008.8 |
| 20260506011418 | 48 | 301 | 0.0 | 0.0 | 0.07 | 0.44 | 0.44 | 95 | 1008.6 |
| 20260506010915 | 48 | 303 | 0.0 | 0.0 | 0.07 | 0.44 | 0.44 | 95 | 1008.7 |
| 20260506010414 | 48 | 307 | 0.0 | 0.0 | 0.00 | 0.43 | 0.43 | 95 | 1008.7 |
| 20260506005910 | 48 | 314 | 0.0 | 0.0 | 0.05 | 0.43 | 0.43 | 95 | 1008.7 |
| 20260506005408 | 48 | 321 | 0.0 | 0.0 | 0.05 | 0.43 | 0.43 | 95 | 1008.7 |
| 20260506004902 | 48 | 320 | 0.0 | 0.9 | 0.00 | 0.42 | 0.42 | 95 | 1008.5 |
| 20260506004401 | 48 | 254 | 0.0 | 0.0 | 0.07 | 0.42 | 0.42 | 95 | 1008.7 |
| 20260506003856 | 48 | 245 | 0.0 | 0.0 | 0.07 | 0.42 | 0.42 | 95 | 1008.4 |
| 20260506003353 | 48 | 245 | 0.0 | 0.0 | 0.07 | 0.41 | 0.41 | 95 | 1008.6 |
| 20260506002849 | 48 | 244 | 0.0 | 0.0 | 0.07 | 0.41 | 0.41 | 95 | 1008.3 |
| 20260506002345 | 48 | 284 | 0.0 | 0.0 | 0.05 | 0.40 | 0.40 | 95 | 1008.6 |
| 20260506001841 | 48 | 281 | 0.0 | 0.0 | 0.05 | 0.40 | 0.40 | 95 | 1008.6 |
| 20260506001338 | 48 | 325 | 0.9 | 0.9 | 0.00 | 0.39 | 0.39 | 95 | 1008.5 |
| 20260506000835 | 49 | 310 | 0.0 | 0.0 | 0.07 | 0.39 | 0.39 | 95 | 1008.5 |
| 20260506000333 | 49 | 354 | 0.0 | 0.0 | 0.07 | 0.39 | 0.39 | 95 | 1008.5 |
| 20260505235830 | 49 | 87 | 0.0 | 0.0 | 0.00 | 0.38 | 0.38 | 95 | 1008.5 |
| 20260505235327 | 49 | 87 | 0.0 | 0.0 | 0.05 | 0.38 | 0.38 | 95 | 1008.3 |
| 20260505234824 | 49 | 90 | 0.0 | 0.0 | 0.05 | 0.38 | 0.38 | 94 | 1008.2 |
| 20260505234322 | 49 | 115 | 0.0 | 0.0 | 0.07 | 0.37 | 0.37 | 94 | 1008.5 |
| 20260505233819 | 49 | 127 | 0.0 | 0.0 | 0.07 | 0.37 | 0.37 | 94 | 1008.5 |
| 20260505233317 | 49 | 214 | 0.0 | 0.0 | 0.00 | 0.36 | 0.36 | 94 | 1008.7 |
| 20260505232814 | 49 | 298 | 0.0 | 0.9 | 0.05 | 0.36 | 0.36 | 94 | 1008.7 |
| 20260505232311 | 49 | 347 | 0.0 | 0.0 | 0.05 | 0.36 | 0.36 | 94 | 1008.7 |
| 20260505231808 | 49 | 336 | 0.0 | 0.9 | 0.00 | 0.35 | 0.35 | 94 | 1008.7 |
| 20260505231306 | 49 | 329 | 0.0 | 0.9 | 0.00 | 0.35 | 0.35 | 94 | 1008.8 |
| 20260505230804 | 49 | 309 | 0.0 | 0.0 | 0.07 | 0.35 | 0.35 | 94 | 1008.7 |
| 20260505230300 | 49 | 320 | 0.0 | 0.9 | 0.07 | 0.35 | 0.35 | 94 | 1008.5 |
| 20260505225757 | 49 | 315 | 1.7 | 1.7 | 0.00 | 0.34 | 0.34 | 94 | 1008.5 |
| 20260505225254 | 49 | 326 | 0.0 | 0.9 | 0.00 | 0.34 | 0.34 | 94 | 1008.7 |
| 20260505224749 | 49 | 77 | 0.9 | 0.9 | 0.05 | 0.34 | 0.34 | 94 | 1008.4 |
| 20260505224247 | 49 | 319 | 0.0 | 0.9 | 0.05 | 0.34 | 0.34 | 94 | 1008.3 |
| 20260505223744 | 49 | 357 | 0.0 | 0.9 | 0.07 | 0.33 | 0.33 | 94 | 1008.3 |
| 20260505223241 | 49 | 228 | 0.0 | 0.0 | 0.07 | 0.33 | 0.33 | 94 | 1008.2 |
| 20260505222737 | 49 | 24 | 0.0 | 0.9 | 0.00 | 0.32 | 0.32 | 94 | 1008.2 |
| 20260505222233 | 49 | 107 | 0.0 | 0.9 | 0.05 | 0.32 | 0.32 | 94 | 1008.2 |
| 20260505221730 | 49 | 315 | 0.0 | 0.0 | 0.05 | 0.32 | 0.32 | 94 | 1008.0 |
| 20260505221227 | 49 | 56 | 0.0 | 0.0 | 0.00 | 0.31 | 0.31 | 94 | 1008.1 |
| 20260505220724 | 49 | 92 | 0.0 | 0.9 | 0.00 | 0.31 | 0.31 | 94 | 1008.1 |
| 20260505220222 | 49 | 85 | 0.0 | 2.6 | 0.00 | 0.31 | 0.31 | 94 | 1008.2 |
| 20260505215719 | 49 | 135 | 0.0 | 0.9 | 0.00 | 0.31 | 0.31 | 94 | 1008.0 |
| 20260505215217 | 50 | 327 | 0.0 | 1.7 | 0.07 | 0.31 | 0.31 | 94 | 1008.1 |
| 20260505214714 | 50 | 30 | 0.0 | 0.9 | 0.07 | 0.31 | 0.31 | 94 | 1008.1 |
| 20260505214212 | 50 | 315 | 0.0 | 0.9 | 0.07 | 0.30 | 0.30 | 94 | 1008.0 |
| 20260505213709 | 50 | 85 | 0.0 | 1.7 | 0.07 | 0.30 | 0.30 | 94 | 1008.1 |
| 20260505213206 | 50 | 326 | 1.7 | 2.6 | 0.05 | 0.29 | 0.29 | 94 | 1008.1 |
| 20260505212702 | 50 | 226 | 0.0 | 0.0 | 0.12 | 0.29 | 0.29 | 94 | 1008.2 |
| 20260505212159 | 50 | 250 | 0.0 | 0.0 | 0.07 | 0.28 | 0.28 | 94 | 1008.0 |
| 20260505211656 | 50 | 279 | 0.0 | 0.9 | 0.05 | 0.27 | 0.27 | 94 | 1008.2 |
| 20260505211154 | 50 | 342 | 0.9 | 1.7 | 0.12 | 0.27 | 0.27 | 94 | 1008.0 |
| 20260505210650 | 50 | 325 | 0.9 | 2.6 | 0.12 | 0.26 | 0.26 | 93 | 1008.2 |
| 20260505210147 | 50 | 342 | 0.9 | 1.7 | 0.12 | 0.25 | 0.25 | 93 | 1008.0 |
| 20260505205644 | 50 | 326 | 0.9 | 1.7 | 0.12 | 0.24 | 0.24 | 93 | 1008.0 |
| 20260505205142 | 50 | 346 | 0.9 | 1.7 | 0.12 | 0.23 | 0.23 | 93 | 1008.0 |